Location: Black Swamp Observatory
(41.3920°N, 84.1250°W)
Time: 14:28:34
(UTC-05:00)

Transit 4A - Visible Passes

Search period start: 25 January 2022 00:00
Search period end: 04 February 2022 00:00
Orbit: 863 x 981 km, 66.8° (Epoch: 25 January)

Date Brightness Start Highest point End Pass type
(mag) Time Alt. Az. Time Alt. Az. Time Alt. Az.
25 Jan 9.5 07:03:47 10° S 07:09:17 40° ESE 07:14:59 10° NE visible
26 Jan 8.6 07:12:34 10° SSW 07:18:26 60° ESE 07:24:31 10° NE visible
27 Jan 11.0 05:39:48 10° SE 05:42:19 13° E 05:44:51 10° ENE visible
27 Jan 8.0 07:21:38 10° SSW 07:27:40 87° ESE 07:33:54 10° NNE visible
27 Jan 11.2 18:13:07 10° WNW 18:16:15 14° W 18:19:22 10° SW visible
28 Jan 10.5 05:47:00 10° SSE 05:51:15 20° ESE 05:55:35 10° ENE visible
29 Jan 9.8 05:55:07 10° SSE 06:00:16 31° ESE 06:05:34 10° NE visible
30 Jan 9.0 06:03:40 10° S 06:09:21 46° ESE 06:15:14 10° NE visible
31 Jan 8.2 06:12:34 10° SSW 06:18:32 69° ESE 06:24:42 10° NE visible
01 Feb 10.5 04:38:59 10° SE 04:42:18 15° ESE 04:45:40 10° ENE visible
01 Feb 7.8 06:21:45 10° SSW 06:27:46 83° WNW 06:34:04 10° NNE visible
02 Feb 9.9 04:46:38 10° SSE 04:51:16 24° ESE 04:56:01 10° NE visible
02 Feb 7.9 06:31:10 10° SW 06:37:07 58° NW 06:43:18 10° NNE visible
03 Feb 9.3 04:55:48 14° S 05:00:18 35° ESE 05:05:52 10° NE visible
03 Feb 8.3 06:40:52 10° WSW 06:46:34 41° NW 06:52:28 10° NNE visible
